Aérodrome :
LOGIN :

S'inscrire | Disclaimer

   EN    FR    IT 

 










Légende :    VFR   VFR Marginal   IFR   IFR Intensif   IFR Très Intensif
Visi : 
Plafond : 
>= 8 km
>= 3000ft
5 à 8 km
1000 à 3000 ft
1500m à 5 km
500 à 1000 ft
800 à 1500m
200 à 500 ft
< 800m
< 200 ft
Symboles :   Orages  Brouillard  Fortes neiges  Fortes précipitations  Vent > 20 kt
SIGMETs :   Divers  Orages  Givrage  Turbulence  Onde Orograph.  Cendres Volcan.







- Altitude de l'aérodrome : 1966 ft
- Code IATA : SGE


EDGS - Siegerland

DERNIER METAR :
  • 271320Z 12012KT 090V150 CAVOK 23/13 Q1021

METARs EXPIRÉS :
  • 271250Z 12015KT CAVOK 23/13 Q1021
  • 271220Z 13010G20KT CAVOK 23/13 Q1021
  • 271150Z 14017KT CAVOK 23/13 Q1021
  • 271120Z 13012G22KT CAVOK 22/13 Q1021
  • 271050Z 12012KT CAVOK 22/14 Q1021

TAF TAF EDGS
Valide du 27 à 12h jusqu'au 27 à 21h UTC


271100Z 2712/2721 14011KT CAVOK
Pas de NOTAMs connus pour ce terrain.



MET'MAP, la Météo Aéronautique d'un coup d'oeil ! - Copyright ORBIFLY Décembre 2007 - Disclaimer

ORBIFLY MET'MAP TEAM :

Programmation & Développement : Alexandra Zaïnal
Conception & Développement : Baudouin d'Aumeries
Co-Programmation & Développement : Marc-Olivier Méhu
Soutien technique & logistique : Manuel Goepfert

Contact : metmap@orbifly.com




SOURCES & CREDITS :

   NOAA